Location: Newark
(49.8969°N, 3.3422°E)
Time: 00:32:44
(UTC+00:00)

deb Explorer IX - Pass Details

Date: 19 January 2020
Orbit: 549 x 1099 km, 38.8° (Epoch: 27 February)

Event Time Altitude Azimuth Distance (km) Brightness Sun altitude
Rises 23:23:57 0° 216° (SW) 3,895 - -59.7°
Reaches altitude 10° 23:27:26 10° 201° (SSW) 2,942 - -59.8°
Maximum altitude 23:32:34 21° 156° (SSE) 2,203 - -60.0°
Drops below altitude 10° 23:37:32 10° 111° (ESE) 2,835 - -60.1°
Sets 23:40:48 0° 96° (E) 3,715 - -60.2°
